Tracking 27420 objects as of 11-Jun-2023
HD Live streaming from Space Station
objects crossing your sky now

STARLINK-6239

Track STARLINK-6239 now!
10-day predictions
STARLINK-6239 is classified as:


NORAD ID: 56423
Int'l Code: 2023-061BB
Perigee: 361.1 km
Apogee: 363.3 km
Inclination: 43.0 °
Period: 91.6 minutes
Semi major axis: 6733 km
RCS: Unknown
Launch date: May 4, 2023
Source: United States (US)
Launch site: AIR FORCE EASTERN TEST RANGE (AFETR)
Your satellite tracking list
Your tracking list is empty




NASA's NSSDC Master Catalog

Two Line Element Set (TLE):
1 56423U 23061BB  23161.49884849 -.00004700  00000-0 -32424-4 0  9991
2 56423  42.9963 247.1214 0001600 280.0575  80.0112 15.71346520  5865
Source of the keplerian elements: AFSPC